Regional Weather Roundup
Issued by NWS Goodland, KS

Home | Current Version | Previous Version | Graphics & Text | Print | Product List | Glossary On
Versions: 1 2 3 4 5 6 7 8 9 10 11 12 13 14 15 16 17 18 19 20 21 22 23 24 25 26 27 28 29 30 31 32 33 34 35 36 37 38 39 40 41 42 43 44 45 46 47 48 49 50
000
ASUS43 KGLD 241359
RWRGLD

GOODLAND FORECAST AREA HOURLY WEATHER ROUNDUP
NATIONAL WEATHER SERVICE GOODLAND KS
800 AM MDT THU JUL 24 2014

...OFFICIAL OBSERVATIONS...

CITY           SKY/WX    TMP DP  RH WIND       PRES   REMARKS
GOODLAND KS    SUNNY     73  66  78 SW9       30.09S
HILL CITY KS   SUNNY     75  66  73 SE9       30.06F
IMPERIAL NEB   SUNNY     74  67  78 S16       30.02F
MCCOOK NEB     SUNNY     73  66  78 S12       30.03F
AKRON CO       SUNNY     80  50  34 S21G29    30.09F
BURLINGTON CO  SUNNY     75  60  59 SW9       30.11F
LIMON CO       SUNNY     70  54  56 SE5       30.18F
$$

...UNOFFICIAL OBSERVATIONS...

CITY           SKY/WX    TMP DP  RH WIND       PRES   REMARKS
COLBY KS       SUNNY     75  72  88 S13       30.07S
GOVE KS          N/A     73  32  22 MISG        N/A
NORTON KS      MOSUNNY   73  61  64 SE13G18   30.05F
SHARON SPRINGS   N/A     73  68  84 S10         N/A
TRENTON NEB      N/A     73  32  22 S10         N/A
KIT CARSON CO    N/A     72  63  72 N5          N/A
YUMA CO          N/A     75  58  55 SW12G18     N/A
$$


USA.gov is the U.S. government's official web portal to all federal, state and local government web resources and services.